N375MD KFAY-KLIT

Flight info

Callsign N375MD
Flight time N/A
Altitude VFR
Route
Aircraft PA28/L-VGD/C

Departure

Time 2026-05-05 23:01
Airport Fayetteville Regional Airport - Grannis Field (KFAY)

Arrival

Time N/A
Airport Bill & Hillary Clinton National Airport/Adams Field (KLIT)
Time Latitude Longitude Altitude Speed Heading
2026-05-05 22:50 34.99311 -78.88308 192 ft 0 kts 336°
2026-05-05 22:54 34.99315 -78.88307 192 ft 4 kts 38°
2026-05-05 22:54 34.99324 -78.88271 192 ft 5 kts 26°
2026-05-05 22:54 34.99350 -78.88249 192 ft 6 kts 53°
2026-05-05 22:54 34.99350 -78.88194 192 ft 6 kts 76°
2026-05-05 22:55 34.99381 -78.88163 191 ft 6 kts 31°
2026-05-05 22:55 34.99424 -78.88131 191 ft 8 kts 32°
2026-05-05 22:55 34.99487 -78.88085 190 ft 12 kts 32°
2026-05-05 22:55 34.99559 -78.88032 190 ft 12 kts 32°
2026-05-05 22:56 34.99634 -78.87979 200 ft 12 kts 28°
2026-05-05 22:56 34.99704 -78.87923 197 ft 12 kts 37°
2026-05-05 22:56 34.99766 -78.87880 188 ft 10 kts 38°
2026-05-05 22:56 34.99823 -78.87838 187 ft 10 kts 31°
2026-05-05 22:57 34.99884 -78.87793 187 ft 10 kts 31°
2026-05-05 22:57 34.99943 -78.87749 191 ft 10 kts 31°
2026-05-05 22:57 34.99999 -78.87708 186 ft 10 kts 31°
2026-05-05 22:57 35.00056 -78.87667 186 ft 9 kts 33°
2026-05-05 22:58 35.00111 -78.87626 185 ft 9 kts 31°
2026-05-05 22:58 35.00170 -78.87582 185 ft 11 kts 29°
2026-05-05 22:58 35.00237 -78.87533 184 ft 12 kts 23°
2026-05-05 22:58 35.00284 -78.87465 187 ft 9 kts 109°
2026-05-05 22:59 35.00276 -78.87450 190 ft 0 kts 126°
2026-05-05 22:59 35.00273 -78.87442 188 ft 5 kts 117°
2026-05-05 22:59 35.00241 -78.87404 191 ft 7 kts 155°
2026-05-05 23:00 35.00145 -78.87446 185 ft 20 kts 209°
2026-05-05 23:00 34.99877 -78.87652 216 ft 65 kts 200°
2026-05-05 23:00 34.99402 -78.88000 274 ft 94 kts 208°
2026-05-05 23:01 34.98817 -78.88454 421 ft 104 kts 204°
2026-05-05 23:01 34.98176 -78.88860 531 ft 109 kts 193°
2026-05-05 23:01 34.97423 -78.89109 480 ft 125 kts 189°
2026-05-05 23:01 34.96859 -78.89736 897 ft 117 kts 259°
2026-05-05 23:02 34.96736 -78.90644 1243 ft 101 kts 236°
2026-05-05 23:02 34.96400 -78.91343 1590 ft 92 kts 231°
2026-05-05 23:02 34.96164 -78.92061 1901 ft 104 kts 270°
2026-05-05 23:02 34.96509 -78.92873 2228 ft 104 kts 278°
2026-05-05 23:03 34.96777 -78.93701 2556 ft 105 kts 286°
2026-05-05 23:03 34.97073 -78.94511 2896 ft 105 kts 285°
2026-05-05 23:03 34.97374 -78.95324 3179 ft 108 kts 284°
2026-05-05 23:03 34.97682 -78.96142 3483 ft 109 kts 284°
2026-05-05 23:04 34.98006 -78.96984 3775 ft 109 kts 285°
2026-05-05 23:04 34.98331 -78.97814 4073 ft 108 kts 284°
2026-05-05 23:04 34.98654 -78.98638 4367 ft 106 kts 283°
2026-05-05 23:04 34.98967 -78.99447 4664 ft 104 kts 285°
2026-05-05 23:05 34.99281 -79.00227 4934 ft 101 kts 285°
2026-05-05 23:05 34.99581 -79.00997 5191 ft 100 kts 284°
2026-05-05 23:05 34.99884 -79.01759 5434 ft 100 kts 284°
2026-05-05 23:05 35.00195 -79.02516 5676 ft 100 kts 284°
2026-05-05 23:06 35.00506 -79.03269 5913 ft 100 kts 287°
2026-05-05 23:06 35.01045 -79.03883 6129 ft 107 kts 308°
2026-05-05 23:06 35.01449 -79.04569 6365 ft 92 kts 270°
2026-05-05 23:06 35.01544 -79.05321 6577 ft 89 kts 266°
2026-05-05 23:07 35.01630 -79.06061 6784 ft 87 kts 267°
2026-05-05 23:07 35.01702 -79.06783 6988 ft 85 kts 266°
2026-05-05 23:07 35.01767 -79.07494 7159 ft 84 kts 266°
2026-05-05 23:07 35.01827 -79.08200 7354 ft 85 kts 266°
2026-05-05 23:08 35.01887 -79.08920 7565 ft 85 kts 266°
2026-05-05 23:08 35.01946 -79.09638 7779 ft 85 kts 266°
2026-05-05 23:08 35.02003 -79.10354 7994 ft 84 kts 266°
2026-05-05 23:08 35.02060 -79.11063 8209 ft 84 kts 266°
2026-05-05 23:09 35.02117 -79.11775 8425 ft 84 kts 266°
2026-05-05 23:09 35.02173 -79.12478 8629 ft 83 kts 266°
2026-05-05 23:09 35.02227 -79.13170 8826 ft 82 kts 266°
2026-05-05 23:09 35.02281 -79.13857 9013 ft 81 kts 266°
2026-05-05 23:10 35.02335 -79.14540 9201 ft 81 kts 266°
2026-05-05 23:10 35.02388 -79.15222 9381 ft 81 kts 266°
2026-05-05 23:10 35.02442 -79.15903 9557 ft 80 kts 266°
2026-05-05 23:10 35.02495 -79.16579 9734 ft 80 kts 265°
2026-05-05 23:11 35.02548 -79.17245 9900 ft 80 kts 266°
2026-05-05 23:11 35.02600 -79.17917 10059 ft 79 kts 266°
2026-05-05 23:11 35.02652 -79.18585 10218 ft 79 kts 266°
2026-05-05 23:11 35.02705 -79.19252 10372 ft 78 kts 266°
2026-05-05 23:12 35.02756 -79.19911 10525 ft 78 kts 266°
2026-05-05 23:12 35.02808 -79.20567 10671 ft 77 kts 266°
2026-05-05 23:12 35.02859 -79.21219 10816 ft 77 kts 266°
2026-05-05 23:12 35.02909 -79.21865 10945 ft 76 kts 266°
2026-05-05 23:13 35.02959 -79.22508 11070 ft 76 kts 266°
2026-05-05 23:13 35.03009 -79.23145 11182 ft 76 kts 267°
2026-05-05 23:13 35.03076 -79.23799 11275 ft 81 kts 276°
2026-05-05 23:13 35.03257 -79.24454 11382 ft 81 kts 277°